TimeMST,TemperatureF,Dew PointF,Humidity,Sea Level PressureIn,VisibilityMPH,Wind Direction,Wind SpeedMPH,Gust SpeedMPH,PrecipitationIn,Events,Conditions,WindDirDegrees,DateUTC
12:53 AM,39.9,30.9,70,29.92,10.0,Calm,Calm,-,N/A,,Clear,0,2012-11-21 07:53:00
1:53 AM,36.0,30.0,79,29.90,10.0,WSW,6.9,-,N/A,,Clear,250,2012-11-21 08:53:00
2:53 AM,33.1,28.9,85,29.90,10.0,Calm,Calm,-,N/A,,Clear,0,2012-11-21 09:53:00
3:53 AM,36.0,30.0,79,29.87,10.0,Calm,Calm,-,N/A,,Clear,0,2012-11-21 10:53:00
4:53 AM,33.1,28.9,85,29.88,10.0,Calm,Calm,-,N/A,,Clear,0,2012-11-21 11:53:00
5:53 AM,30.9,28.0,89,29.87,10.0,Calm,Calm,-,N/A,,Clear,0,2012-11-21 12:53:00
6:53 AM,33.1,28.0,82,29.85,10.0,Calm,Calm,-,N/A,,Clear,0,2012-11-21 13:53:00
7:53 AM,35.1,28.9,78,29.84,10.0,South,3.5,-,N/A,,Clear,170,2012-11-21 14:53:00
8:53 AM,44.1,32.0,63,29.83,10.0,SSE,5.8,-,N/A,,Clear,160,2012-11-21 15:53:00
9:53 AM,48.9,32.0,52,29.79,10.0,SE,4.6,-,N/A,,Clear,130,2012-11-21 16:53:00
10:53 AM,55.0,30.9,40,29.77,10.0,SSE,12.7,-,N/A,,Clear,160,2012-11-21 17:53:00
11:53 AM,57.9,30.9,36,29.73,10.0,SSE,10.4,-,N/A,,Clear,150,2012-11-21 18:53:00
12:53 PM,60.1,30.9,33,29.71,10.0,SSE,3.5,-,N/A,,Clear,160,2012-11-21 19:53:00
1:53 PM,63.0,30.9,30,29.70,10.0,Calm,Calm,-,N/A,,Overcast,0,2012-11-21 20:53:00
2:53 PM,62.1,30.9,31,29.70,10.0,NW,8.1,-,N/A,,Scattered Clouds,320,2012-11-21 21:53:00
3:53 PM,57.9,30.9,36,29.72,10.0,NW,11.5,-,N/A,,Scattered Clouds,320,2012-11-21 22:53:00
4:53 PM,54.0,30.9,41,29.75,10.0,West,10.4,-,N/A,,Mostly Cloudy,270,2012-11-21 23:53:00
5:53 PM,52.0,30.0,43,29.79,10.0,WNW,18.4,-,N/A,,Overcast,300,2012-11-22 00:53:00
6:53 PM,48.0,30.9,52,29.80,10.0,NW,17.3,21.9,N/A,,Clear,310,2012-11-22 01:53:00
7:53 PM,44.1,32.0,63,29.83,10.0,WNW,16.1,-,N/A,,Scattered Clouds,290,2012-11-22 02:53:00
8:53 PM,41.0,30.9,67,29.83,10.0,WNW,13.8,-,N/A,,Clear,300,2012-11-22 03:53:00
9:53 PM,39.0,30.0,70,29.86,10.0,NW,23.0,27.6,N/A,,Clear,320,2012-11-22 04:53:00
10:53 PM,41.0,30.0,65,29.84,10.0,NNW,24.2,31.1,N/A,,Clear,330,2012-11-22 05:53:00
11:53 PM,37.0,28.0,70,29.92,10.0,NNW,36.8,49.5,N/A,,Scattered Clouds,330,2012-11-22 06:53:00